When you browse on this site, cookies collect data to enhance your experience and personalize the content and advertising you see.
Visit our Privacy Policy to learn more. By continuing to use the site, you agree to this use of cookies and data.
  • In Hungary
  • List of Countries
  • For 7 days
  • Water Temperature
  • Satellite Maps
  • Weather Map
  • News
  • Weather Widgets
  • user-avatar
    Login

    Hourly Weather Kawiory

    Today, 19 May, Sunday

    Time Temperature Precipitation Wind Pressure Humidity
    00:00 +12°C° 0.1 mm 1 mps 717 mmHg 92%
    01:00 +12°C° 0 mm 1 mps 716 mmHg 93%
    02:00 +11°C° 0 mm 1 mps 716 mmHg 92%
    03:00 +11°C° 0 mm 1 mps 716 mmHg 92%
    04:00 +10°C° 0 mm 1 mps 716 mmHg 92%
    05:00 +12°C° 0 mm 1 mps 716 mmHg 88%
    06:00 +14°C° 0 mm 1 mps 716 mmHg 84%
    07:00 +15°C° 0 mm 1 mps 716 mmHg 80%
    08:00 +17°C° 0 mm 2 mps 716 mmHg 75%
    09:00 +19°C° 0 mm 2 mps 716 mmHg 70%
    10:00 +20°C° 0 mm 2 mps 716 mmHg 65%
    11:00 +21°C° 0.1 mm 3 mps 716 mmHg 63%
    12:00 +22°C° 0.1 mm 3 mps 716 mmHg 61%
    13:00 +22°C° 0.1 mm 4 mps 716 mmHg 59%
    14:00 +22°C° 0.8 mm 4 mps 716 mmHg 61%
    15:00 +22°C° 0.8 mm 4 mps 716 mmHg 63%
    16:00 +22°C° 0.8 mm 4 mps 715 mmHg 64%
    17:00 +21°C° 0.3 mm 3 mps 715 mmHg 69%
    18:00 +19°C° 0.3 mm 3 mps 715 mmHg 74%
    19:00 +18°C° 0.3 mm 3 mps 715 mmHg 79%
    20:00 +16°C° 0 mm 2 mps 715 mmHg 82%
    21:00 +15°C° 0 mm 2 mps 715 mmHg 85%
    22:00 +14°C° 0 mm 2 mps 715 mmHg 88%
    23:00 +14°C° 0 mm 1 mps 715 mmHg 88%

    Tomorrow, 20 May, Monday

    Time Temperature Precipitation Wind Pressure Humidity
    00:00 +13°C° 0 mm 1 mps 714 mmHg 88%
    01:00 +13°C° 0 mm 1 mps 714 mmHg 88%
    02:00 +13°C° 0 mm 1 mps 714 mmHg 89%
    03:00 +12°C° 0 mm 2 mps 713 mmHg 90%
    04:00 +12°C° 0 mm 2 mps 713 mmHg 91%
    05:00 +13°C° 0.1 mm 2 mps 713 mmHg 89%
    06:00 +14°C° 0.1 mm 3 mps 713 mmHg 88%
    07:00 +16°C° 0.1 mm 3 mps 713 mmHg 86%
    08:00 +18°C° 0 mm 3 mps 714 mmHg 80%
    09:00 +19°C° 0 mm 3 mps 714 mmHg 73%
    10:00 +21°C° 0 mm 3 mps 715 mmHg 66%
    11:00 +22°C° 0.7 mm 3 mps 715 mmHg 63%
    12:00 +22°C° 0.7 mm 3 mps 715 mmHg 60%
    13:00 +24°C° 0.7 mm 3 mps 715 mmHg 58%
    14:00 +24°C° 0.2 mm 3 mps 715 mmHg 56%
    15:00 +24°C° 0.2 mm 2 mps 715 mmHg 54%
    16:00 +24°C° 0.2 mm 2 mps 715 mmHg 53%
    17:00 +21°C° 0 mm 2 mps 715 mmHg 58%
    18:00 +19°C° 0 mm 2 mps 715 mmHg 63%
    19:00 +17°C° 0 mm 2 mps 715 mmHg 69%
    20:00 +16°C° 0 mm 2 mps 715 mmHg 70%
    21:00 +15°C° 0 mm 2 mps 715 mmHg 71%
    22:00 +14°C° 0 mm 1 mps 715 mmHg 71%
    23:00 +14°C° 0 mm 1 mps 715 mmHg 74%

    Day after tomorrow, 21 May, Tuesday

    Time Temperature Precipitation Wind Pressure Humidity
    00:00 +13°C° 0 mm 1 mps 715 mmHg 77%
    01:00 +12°C° 0 mm 1 mps 715 mmHg 79%
    02:00 +12°C° 0 mm 1 mps 715 mmHg 80%
    03:00 +12°C° 0 mm 1 mps 715 mmHg 81%
    04:00 +12°C° 0 mm 1 mps 715 mmHg 82%
    05:00 +13°C° 0 mm 1 mps 715 mmHg 77%
    06:00 +14°C° 0 mm 1 mps 715 mmHg 73%
    07:00 +16°C° 0 mm 1 mps 715 mmHg 69%
    08:00 +18°C° 0 mm 1 mps 716 mmHg 66%
    09:00 +17°C° 0 mm 2 mps 716 mmHg 62%
    10:00 +18°C° 0 mm 2 mps 716 mmHg 59%
    11:00 +18°C° 0.1 mm 2 mps 716 mmHg 59%
    12:00 +18°C° 0.1 mm 2 mps 716 mmHg 60%
    13:00 +18°C° 0.1 mm 2 mps 716 mmHg 60%
    14:00 +18°C° 0.1 mm 2 mps 716 mmHg 63%
    15:00 +17°C° 0.1 mm 3 mps 716 mmHg 67%
    16:00 +17°C° 0.1 mm 3 mps 716 mmHg 70%
    17:00 +16°C° 0.1 mm 2 mps 716 mmHg 73%
    18:00 +15°C° 0.1 mm 2 mps 716 mmHg 77%
    19:00 +15°C° 0.1 mm 1 mps 716 mmHg 80%
    20:00 +14°C° 0 mm 1 mps 716 mmHg 82%
    21:00 +13°C° 0 mm 1 mps 716 mmHg 83%
    22:00 +13°C° 0 mm 2 mps 717 mmHg 85%
    23:00 +13°C° 0.3 mm 2 mps 716 mmHg 87%

    22 May, Wednesday

    Time Temperature Precipitation Wind Pressure Humidity
    00:00 +12°C° 0.3 mm 1 mps 716 mmHg 89%
    01:00 +12°C° 0.3 mm 1 mps 716 mmHg 91%
    02:00 +12°C° 0.5 mm 1 mps 716 mmHg 92%
    03:00 +12°C° 0.5 mm 1 mps 716 mmHg 92%
    04:00 +12°C° 0.5 mm 1 mps 716 mmHg 93%
    05:00 +12°C° 0.3 mm 2 mps 717 mmHg 91%
    06:00 +13°C° 0.3 mm 2 mps 717 mmHg 89%
    07:00 +14°C° 0.3 mm 2 mps 717 mmHg 86%
    08:00 +15°C° 0.1 mm 2 mps 717 mmHg 81%
    09:00 +16°C° 0.1 mm 3 mps 717 mmHg 76%
    10:00 +18°C° 0.1 mm 3 mps 718 mmHg 71%
    11:00 +18°C° 0.9 mm 4 mps 718 mmHg 71%
    12:00 +18°C° 0.9 mm 4 mps 718 mmHg 71%
    13:00 +19°C° 0.9 mm 4 mps 718 mmHg 72%
    14:00 +18°C° 0.9 mm 4 mps 717 mmHg 75%
    15:00 +17°C° 0.9 mm 4 mps 717 mmHg 79%
    16:00 +17°C° 0.9 mm 4 mps 717 mmHg 82%
    17:00 +15°C° 0.4 mm 4 mps 717 mmHg 85%
    18:00 +14°C° 0.4 mm 3 mps 717 mmHg 88%
    19:00 +13°C° 0.4 mm 3 mps 718 mmHg 91%
    20:00 +12°C° 0.3 mm 4 mps 718 mmHg 92%
    21:00 +12°C° 0.3 mm 4 mps 718 mmHg 93%
    22:00 +12°C° 0.3 mm 4 mps 718 mmHg 94%
    23:00 +11°C° 0.1 mm 4 mps 718 mmHg 94%

    23 May, Thursday

    Time Temperature Precipitation Wind Pressure Humidity
    00:00 +11°C° 0.1 mm 3 mps 718 mmHg 94%
    01:00 +10°C° 0.1 mm 3 mps 718 mmHg 95%
    02:00 +10°C° 0.1 mm 3 mps 718 mmHg 95%
    03:00 +10°C° 0.1 mm 3 mps 718 mmHg 95%
    04:00 +10°C° 0.1 mm 3 mps 718 mmHg 95%
    05:00 +11°C° 0 mm 3 mps 718 mmHg 93%
    06:00 +11°C° 0 mm 3 mps 719 mmHg 92%
    07:00 +12°C° 0 mm 4 mps 719 mmHg 90%
    08:00 +12°C° 0.5 mm 4 mps 719 mmHg 91%
    09:00 +12°C° 0.5 mm 4 mps 719 mmHg 91%
    10:00 +13°C° 0.5 mm 4 mps 720 mmHg 92%
    11:00 +12°C° 0.7 mm 4 mps 720 mmHg 92%
    12:00 +10°C° 0.7 mm 5 mps 720 mmHg 92%
    13:00 +10°C° 0.7 mm 6 mps 720 mmHg 93%
    14:00 +9°C° 0.7 mm 6 mps 720 mmHg 93%
    15:00 +8°C° 0.7 mm 6 mps 720 mmHg 94%
    16:00 +8°C° 0.7 mm 6 mps 720 mmHg 94%
    17:00 +8°C° 0.7 mm 5 mps 720 mmHg 94%
    18:00 +8°C° 0.7 mm 5 mps 720 mmHg 94%
    19:00 +8°C° 0.7 mm 4 mps 721 mmHg 94%
    20:00 +8°C° 0.2 mm 4 mps 721 mmHg 93%
    21:00 +8°C° 0.2 mm 4 mps 721 mmHg 92%
    22:00 +9°C° 0.2 mm 3 mps 721 mmHg 92%
    23:00 +8°C° 0 mm 3 mps 721 mmHg 93%

    24 May, Friday

    Time Temperature Precipitation Wind Pressure Humidity
    00:00 +8°C° 0 mm 3 mps 721 mmHg 93%
    01:00 +8°C° 0 mm 2 mps 721 mmHg 94%
    02:00 +7°C° 0 mm 2 mps 721 mmHg 94%
    03:00 +7°C° 0 mm 2 mps 721 mmHg 94%
    04:00 +8°C° 0 mm 1 mps 721 mmHg 95%
    05:00 +8°C° 0 mm 2 mps 721 mmHg 91%
    06:00 +9°C° 0 mm 2 mps 721 mmHg 87%
    07:00 +12°C° 0 mm 2 mps 721 mmHg 83%
    08:00 +13°C° 0 mm 2 mps 721 mmHg 77%
    09:00 +14°C° 0 mm 2 mps 721 mmHg 71%
    10:00 +15°C° 0 mm 2 mps 720 mmHg 66%
    11:00 +16°C° 0 mm 2 mps 720 mmHg 62%
    12:00 +18°C° 0 mm 1 mps 719 mmHg 58%
    13:00 +19°C° 0 mm 1 mps 719 mmHg 54%
    14:00 +19°C° 0 mm 1 mps 719 mmHg 53%
    15:00 +19°C° 0 mm 1 mps 718 mmHg 53%
    16:00 +19°C° 0 mm 1 mps 718 mmHg 52%
    17:00 +18°C° 0 mm 1 mps 717 mmHg 58%
    18:00 +15°C° 0 mm 1 mps 717 mmHg 64%
    19:00 +14°C° 0 mm 1 mps 716 mmHg 69%
    20:00 +13°C° 0 mm 1 mps 716 mmHg 73%
    21:00 +12°C° 0 mm 1 mps 716 mmHg 77%
    22:00 +11°C° 0 mm 1 mps 716 mmHg 81%
    23:00 +10°C° 0 mm 1 mps 715 mmHg 82%
    Show more